TimeCST,TemperatureF,Dew PointF,Humidity,Sea Level PressureIn,VisibilityMPH,Wind Direction,Wind SpeedMPH,Gust SpeedMPH,PrecipitationIn,Events,Conditions,WindDirDegrees,DateUTC
12:12 AM,35.6,30.2,81,29.95,10.0,Calm,Calm,-,N/A,,Clear,0,2012-12-04 06:12:00
12:33 AM,35.6,28.4,75,29.95,10.0,Calm,Calm,-,N/A,,Clear,0,2012-12-04 06:33:00
12:53 AM,33.8,30.2,87,29.95,10.0,Calm,Calm,-,N/A,,Clear,0,2012-12-04 06:53:00
1:12 AM,33.8,30.2,87,29.96,10.0,Calm,Calm,-,N/A,,Clear,0,2012-12-04 07:12:00
1:33 AM,33.8,30.2,87,29.96,10.0,Calm,Calm,-,N/A,,Clear,0,2012-12-04 07:33:00
1:53 AM,33.8,28.4,81,29.96,10.0,Calm,Calm,-,N/A,,Clear,0,2012-12-04 07:53:00
2:12 AM,37.4,28.4,70,29.97,10.0,Calm,Calm,-,N/A,,Clear,0,2012-12-04 08:12:00
2:53 AM,35.6,26.6,70,29.98,10.0,NW,3.5,-,N/A,,Clear,320,2012-12-04 08:53:00
3:12 AM,33.8,26.6,75,29.98,10.0,WNW,4.6,-,N/A,,Clear,300,2012-12-04 09:12:00
3:33 AM,35.6,28.4,75,29.97,10.0,NW,8.1,-,N/A,,Clear,320,2012-12-04 09:33:00
3:53 AM,37.4,28.4,70,29.98,10.0,WNW,6.9,-,N/A,,Clear,300,2012-12-04 09:53:00
4:12 AM,37.4,26.6,65,29.98,10.0,NNW,6.9,-,N/A,,Clear,330,2012-12-04 10:12:00
4:33 AM,39.2,26.6,61,29.99,10.0,WNW,11.5,18.4,N/A,,Clear,300,2012-12-04 10:33:00
4:53 AM,41.0,26.6,57,30.00,10.0,WNW,10.4,-,N/A,,Clear,290,2012-12-04 10:53:00
5:12 AM,41.0,24.8,53,30.01,10.0,West,3.5,-,N/A,,Clear,270,2012-12-04 11:12:00
5:33 AM,37.4,26.6,65,30.02,10.0,West,3.5,-,N/A,,Clear,260,2012-12-04 11:33:00
5:53 AM,37.4,26.6,65,30.02,10.0,West,3.5,-,N/A,,Clear,270,2012-12-04 11:53:00
6:12 AM,37.4,26.6,65,30.03,10.0,WSW,6.9,-,N/A,,Clear,250,2012-12-04 12:12:00
6:33 AM,37.4,24.8,60,30.05,10.0,WSW,4.6,-,N/A,,Clear,250,2012-12-04 12:33:00
6:53 AM,37.4,26.6,65,30.06,10.0,West,5.8,-,N/A,,Clear,270,2012-12-04 12:53:00
7:12 AM,37.4,26.6,65,30.07,10.0,West,6.9,-,N/A,,Clear,280,2012-12-04 13:12:00
7:33 AM,37.4,24.8,60,30.07,10.0,West,8.1,-,N/A,,Clear,280,2012-12-04 13:33:00
7:53 AM,37.4,24.8,60,30.08,10.0,WNW,9.2,-,N/A,,Clear,300,2012-12-04 13:53:00
8:12 AM,37.4,24.8,60,30.09,10.0,WNW,8.1,16.1,N/A,,Clear,300,2012-12-04 14:12:00
8:33 AM,37.4,24.8,60,30.10,10.0,NW,9.2,-,N/A,,Clear,310,2012-12-04 14:33:00
8:53 AM,37.4,24.8,60,30.11,10.0,WNW,10.4,-,N/A,,Clear,290,2012-12-04 14:53:00
9:13 AM,37.4,24.8,60,30.11,10.0,WNW,12.7,-,N/A,,Clear,290,2012-12-04 15:13:00
9:33 AM,37.4,23.0,56,30.12,10.0,WNW,11.5,19.6,N/A,,Clear,290,2012-12-04 15:33:00
9:53 AM,37.4,23.0,56,30.12,10.0,WNW,10.4,20.7,N/A,,Clear,300,2012-12-04 15:53:00
10:13 AM,37.4,23.0,56,30.14,10.0,NW,12.7,19.6,N/A,,Clear,310,2012-12-04 16:13:00
10:33 AM,37.4,23.0,56,30.14,10.0,WNW,13.8,19.6,N/A,,Clear,300,2012-12-04 16:33:00
10:53 AM,39.2,23.0,52,30.13,10.0,WNW,12.7,18.4,N/A,,Clear,290,2012-12-04 16:53:00
11:13 AM,39.2,21.2,49,30.13,10.0,WNW,11.5,20.7,N/A,,Clear,300,2012-12-04 17:13:00
11:33 AM,39.2,21.2,49,30.13,10.0,WNW,12.7,20.7,N/A,,Clear,300,2012-12-04 17:33:00
12:13 PM,39.2,19.4,45,30.13,10.0,West,12.7,19.6,N/A,,Clear,280,2012-12-04 18:13:00
12:33 PM,41.0,19.4,42,30.14,10.0,WNW,15.0,19.6,N/A,,Clear,290,2012-12-04 18:33:00
12:52 PM,41.0,19.4,42,30.14,10.0,WNW,13.8,18.4,N/A,,Clear,300,2012-12-04 18:52:00
1:13 PM,41.0,19.4,42,30.14,10.0,NW,16.1,23.0,N/A,,Clear,310,2012-12-04 19:13:00
1:33 PM,41.0,19.4,42,30.14,10.0,WNW,11.5,16.1,N/A,,Clear,290,2012-12-04 19:33:00
1:52 PM,39.2,17.6,42,30.15,10.0,NW,21.9,-,N/A,,Clear,310,2012-12-04 19:52:00
2:13 PM,39.2,17.6,42,30.16,10.0,NW,18.4,-,N/A,,Clear,310,2012-12-04 20:13:00
2:33 PM,39.2,17.6,42,30.17,10.0,NW,16.1,21.9,N/A,,Clear,320,2012-12-04 20:33:00
2:52 PM,37.4,17.6,45,30.17,10.0,NW,15.0,-,N/A,,Clear,320,2012-12-04 20:52:00
3:13 PM,37.4,17.6,45,30.19,10.0,NW,17.3,-,N/A,,Clear,320,2012-12-04 21:13:00
3:33 PM,37.4,17.6,45,30.20,10.0,WNW,12.7,-,N/A,,Clear,300,2012-12-04 21:33:00
3:52 PM,37.4,19.4,48,30.21,10.0,NW,11.5,-,N/A,,Clear,310,2012-12-04 21:52:00
4:13 PM,33.8,19.4,56,30.22,10.0,WNW,9.2,16.1,N/A,,Clear,300,2012-12-04 22:13:00
4:52 PM,32.0,19.4,60,30.24,10.0,NNW,10.4,-,N/A,,Clear,330,2012-12-04 22:52:00
5:13 PM,32.0,19.4,60,30.25,10.0,NW,9.2,-,N/A,,Clear,320,2012-12-04 23:13:00
5:32 PM,32.0,19.4,60,30.26,10.0,NNW,11.5,-,N/A,,Clear,330,2012-12-04 23:32:00
5:53 PM,32.0,17.6,55,30.27,10.0,NNW,12.7,17.3,N/A,,Clear,330,2012-12-04 23:53:00
6:13 PM,32.0,17.6,55,30.28,10.0,NNW,11.5,17.3,N/A,,Clear,330,2012-12-05 00:13:00
6:32 PM,30.2,17.6,60,30.29,10.0,NNW,8.1,17.3,N/A,,Clear,330,2012-12-05 00:32:00
6:53 PM,30.2,17.6,60,30.29,10.0,NW,5.8,-,N/A,,Clear,320,2012-12-05 00:53:00
7:13 PM,28.4,15.8,59,30.29,10.0,NNW,9.2,-,N/A,,Clear,340,2012-12-05 01:13:00
7:32 PM,28.4,14.0,55,30.30,10.0,NNW,10.4,-,N/A,,Clear,330,2012-12-05 01:32:00
7:53 PM,28.4,14.0,55,30.31,10.0,NNW,9.2,-,N/A,,Clear,330,2012-12-05 01:53:00
8:13 PM,28.4,15.8,59,30.32,10.0,North,5.8,-,N/A,,Clear,350,2012-12-05 02:13:00
8:33 PM,28.4,14.0,55,30.31,10.0,North,5.8,-,N/A,,Clear,360,2012-12-05 02:33:00
8:53 PM,28.4,14.0,55,30.33,10.0,NNW,9.2,-,N/A,,Clear,340,2012-12-05 02:53:00
9:13 PM,28.4,14.0,55,30.34,10.0,NNW,9.2,-,N/A,,Clear,340,2012-12-05 03:13:00
9:33 PM,26.6,12.2,55,30.34,10.0,NNW,5.8,-,N/A,,Clear,340,2012-12-05 03:33:00
9:53 PM,26.6,12.2,55,30.35,10.0,North,6.9,-,N/A,,Clear,350,2012-12-05 03:53:00
10:13 PM,26.6,12.2,55,30.37,10.0,NNW,6.9,-,N/A,,Clear,330,2012-12-05 04:13:00
10:33 PM,26.6,12.2,55,30.37,10.0,NNW,4.6,-,N/A,,Clear,330,2012-12-05 04:33:00
10:53 PM,23.0,12.2,63,30.37,10.0,North,3.5,-,N/A,,Clear,350,2012-12-05 04:53:00
11:13 PM,23.0,12.2,63,30.39,10.0,North,5.8,-,N/A,,Clear,10,2012-12-05 05:13:00
11:33 PM,24.8,12.2,59,30.40,10.0,North,3.5,-,N/A,,Clear,10,2012-12-05 05:33:00
11:53 PM,24.8,12.2,59,30.41,10.0,North,3.5,-,N/A,,Clear,360,2012-12-05 05:53:00